Regional Weather Roundup
Issued by NWS

Home | Current Version | Previous Version | Text Only | Print | Product List | Glossary Off
Versions: 1 2 3 4 5 6 7 8 9 10 11 12 13 14 15 16 17 18 19 20 21 22 23 24 25 26 27 28 29 30 31 32 33 34 35 36 37 38 39 40 41 42 43 44 45 46 47 48 49 50

000
ASUS45 KPSR 182010
RWRAZ

ARIZONA REGIONAL HOURLY WEATHER ROUNDUP
NATIONAL WEATHER SERVICE PHOENIX AZ
100 PM MST THU DEC 18 2014

NOTE: FAIR INDICATES FEW OR NO CLOUDS BELOW 12,000 FEET WITH NO
SIGNIFICANT WEATHER AND/OR OBSTRUCTIONS TO VISIBILITY.

AZZ001>003-036-182100-
NORTHWEST ARIZONA

CITY           SKY/WX    TMP DP  RH WIND       PRES   REMARKS
BULLHEAD CITY  MOSUNNY   59  45  58 N6        30.17F
KINGMAN        CLOUDY    48  37  65 N3        30.15F
$$

AZZ004>008-015-016-018-182100-
NORTH CENTRAL ARIZONA

CITY           SKY/WX    TMP DP  RH WIND       PRES   REMARKS
GRAND CANYON   PTSUNNY   34  30  85 CALM      30.13F
PRESCOTT       CLOUDY    45  29  53 E3        30.11F
FLAGSTAFF      LGT SNOW  33  29  85 NE8       30.10F FOG     WCI  26
PAYSON         CLOUDY    39  34  81 CALM      30.13F
PAGE           CLOUDY    44  33  65 CALM      30.14F
$$

AZZ009>014-017-182100-
NORTHEAST ARIZONA

CITY           SKY/WX    TMP DP  RH WIND       PRES   REMARKS
WINSLOW        CLOUDY    42  31  64 CALM      30.12F
SAINT JOHNS    CLOUDY    37  31  78 CALM      30.10F
WINDOW ROCK    CLOUDY    38  27  64 VRB3      30.10F
SHOW LOW       LGT SNOW  32  32 100 SW6       30.12F WCI  26
$$

AZZ023-182100-
GREATER PHOENIX AREA

CITY           SKY/WX    TMP DP  RH WIND       PRES   REMARKS
PHOENIX        PTSUNNY   59  45  59 CALM      30.10F
BUCKEYE          N/A     57  45  62 W3        30.12F
GLENDALE       PTSUNNY   59  45  58 N7        30.13F
LUKE AFB       MOSUNNY   59  45  60 N7        30.11F
DEER VALLEY    LGT RAIN  53  45  74 E3        30.10F
SCOTTSDALE     LGT RAIN  55  43  63 N8        30.12F
MESA-GATEWAY   PTSUNNY   63  45  51 W7        30.12F
CHANDLER       PTSUNNY   57  46  67 N7        30.11F
$$

AZZ027-028-182100-
SOUTHWEST MARICOPA COUNTY AND PINAL COUNTY

CITY           SKY/WX    TMP DP  RH WIND       PRES   REMARKS
CASA GRANDE    PTSUNNY   57  46  67 CALM      30.11F
GILA BEND      PTCLDY    60  49  66 VRB3      30.13F
$$

AZZ503-504-507>509-182100-
SOUTHEAST ARIZONA

CITY           SKY/WX    TMP DP  RH WIND       PRES   REMARKS
TUCSON         PTSUNNY   56  43  61 W13       30.12F
DAVIS-MONTHAN  PTSUNNY   53  46  77 N8        30.09F
RYAN FIELD       N/A     57  48  72 NW12      30.12F
NOGALES        CLOUDY    52  43  71 N3        30.08F
SIERRA VISTA   LGT RAIN  48  39  71 W14       30.08F
DOUGLAS        CLOUDY    53  40  61 SE3       30.08F
SAFFORD        CLOUDY    49  44  83 E8        30.08F
$$

AZZ020-021-025-026-031-182100-
SOUTHWEST ARIZONA

CITY           SKY/WX    TMP DP  RH WIND       PRES   REMARKS
YUMA           MOSUNNY  N/A N/A N/A N8        30.14F
$$

CAZ031-033-041-043-047-048-061-182100-
SOUTHERN CALIFORNIA

CITY           SKY/WX    TMP DP  RH WIND       PRES   REMARKS
DOWNTOWN L.A.  CLOUDY    61  46  57 CALM      30.17F
L.A. AIRPORT   DRIZZLE   56  49  77 SW7       30.18F
SAN DIEGO      PTSUNNY   64  46  52 NW8       30.19F
BURBANK        CLOUDY    59  43  55 VRB3      30.16F
ONTARIO        MOSUNNY   60  42  51 VRB3      30.16F
RIVERSIDE      MOSUNNY   60  42  51 CALM      30.16F
PALM SPRINGS   SUNNY     65  39  38 NW8       30.15F
EL CENTRO NAS  MOSUNNY   64  42  44 VRB7      30.14F
IMPERIAL       SUNNY     63  47  55 VRB5      30.14F
BLYTHE         MOSUNNY   61  49  64 NE3       30.15F
NEEDLES        SUNNY     61  43  51 N3        30.15F
$$

NVZ020-UTZ003-182100-
SOUTHERN NEVADA-UTAH

CITY           SKY/WX    TMP DP  RH WIND       PRES   REMARKS
LAS VEGAS      PTSUNNY   53  40  61 S5        30.13F
SALT LAKE CITY MOSUNNY   42  32  67 SE7       30.13F
$$

NMZ009-TXZ055-182100-
NEW MEXICO-WEST TEXAS

CITY           SKY/WX    TMP DP  RH WIND       PRES   REMARKS
ALBUQUERQUE    PTSUNNY   42  28  57 W3        30.10F
EL PASO        CLOUDY    53  36  52 SE6       30.08F
$$


........................KEY........................
SKY/WX - SKY CONDITION/WEATHER
TMP    - TEMPERATURE IN FAHRENHEIT
DP     - DEW POINT IN FAHRENHEIT
RH     - RELATIVE HUMIDITY IN PERCENT
WIND   - DIRECTION AND SPEED IN MILES PER HOUR (MPH)
VRB    - VARIABLE WIND DIRECTION
PRES   - MEAN SEA LEVEL PRESSURE IN INCHES OF MERCURY
         F - FALLING PRESSURE   R - RISING PRESSURE
         S - STEADY PRESSURE
VSB    - VISIBILITY IN MILES
HX     - HEAT INDEX IN FAHRENHEIT
WCI    - WIND CHILL INDEX IN FAHRENHEIT
TC     - TEMPERATURE IN CELSIUS WHICH IS ALSO KNOWN AS
         TEMPERATURE IN CENTIGRADE
AFB    - AIR FORCE BASE
         LUKE AFB IS LUKE AIR FORCE BASE
         DAVIS-MONTHAN IS DAVIS-MONTHAN AIR FORCE BASE
NAS    - NAVAL AIR STATION
         EL CENTRO NAS IS EL CENTRO NAVAL AIR STATION
N/A    - NOT AVAILABLE



USA.gov is the U.S. government's official web portal to all federal, state and local government web resources and services.